Location: Newark
(50.1751°N, 5.6239°W)
Time: 16:33:58
(UTC+00:00)

Nauka - Pass Details

Date: 25 September 2021
Orbit: 418 x 423 km, 51.6° (Epoch: 21 October)

Event Time Altitude Azimuth Distance (km) Brightness Sun altitude
Rises 21:19:58 0° 286° (WNW) 2,369 ? -28.7°
Reaches altitude 10° 21:22:04 10° 285° (WNW) 1,504 ? -29.0°
Enters shadow 21:22:46 15° 283° (WNW) 1,227 ? -29.1°
